Regional Weather Roundup
Issued by NWS

Home | Current Version | Previous Version | Text Only | Print | Product List | Glossary On
Versions: 1 2 3 4 5 6 7 8 9 10 11 12 13 14 15 16 17 18 19 20 21 22 23 24 25 26 27 28 29 30 31 32 33 34 35 36 37 38 39 40 41 42 43 44 45 46 47 48 49 50
000
ASCA42 TJSJ 180610
RWRPR
PUERTO RICO/U.S. VIRGIN ISLANDS HOURLY WEATHER ROUNDUP
NATIONAL WEATHER SERVICE SAN JUAN PR
200 AM AST SAT NOV 18 2017

PRZ001>002-007>008-010-180700-
PUERTO RICO

CITY           SKY/WX    TMP DP  RH WIND       PRES   REMARKS
SAN JUAN LMM   PTCLDY    81  77  89 CALM      29.78F
AGUADILLA      CLEAR     79  75  89 MISG      29.81
$$

VIZ001>002-180700-
U.S. VIRGIN ISLANDS

CITY           SKY/WX    TMP DP  RH WIND       PRES   REMARKS
CHARLOTTE AMA    N/A    N/A N/A N/A MISG      29.79F
$$

HOURLY WEATHER ROUNDUP FOR THE NEWS MEDIA

CITY           SKY/WX    TMP DP  RH WIND       PRES   REMARKS
ORLANDO        CLEAR     63  59  87 N3        30.06F
NEW YORK       PTCLDY    38  17  42 NW8       30.06F WCI  32
NEWARK         CLOUDY    36  18  48 W5        30.05F WCI  32
CHICAGO        CLOUDY    48  45  89 SW8       29.55F FOG
HARTFORD       CLEAR     30  19  63 W6        30.01R WCI  24
BOSTON         CLEAR     33  15  47 W8        29.99  WCI  26
DALLAS         MOCLDY    76  63  64 SW16G28   29.70F
PHILADELPHIA   MOCLDY    39  30  70 W3        30.07F
LOS ANGELES    CLEAR     62  55  77 SW6       30.09R
WASHINGTON DC  PTCLDY    33  29  85 S6        30.06F WCI  28


USA.gov is the U.S. government's official web portal to all federal, state and local government web resources and services.